Wind_Speed
18 18 18 17 15 14 13 12 10 8 6 6 6 6 5 4 5 5 5 5 6 6 6 5 3 4 5 6 7 7 8 9 10 12 13 15 15 16 16 17 18 19 19 20
17 17 16 16 14 13 13 12 10 8 6 5 5 5 5 5 5 5 5 5 5 5 5 4 4 5 5 5 6 7 9 10 11 13 14 15 16 16 16 17 18 19 19 20
15 16 16 14 13 13 12 11 10 7 6 4 4 4 5 5 5 4 4 4 4 4 4 3 4 5 5 5 6 7 8 10 12 13 14 15 16 16 17 17 18 19 20 20
14 15 15 14 13 12 11 10 8 6 6 4 3 4 4 4 3 3 3 4 3 3 4 4 4 4 4 5 7 8 10 11 12 14 15 15 16 16 17 17 18 19 19 20
12 13 14 14 13 12 11 9 9 7 6 4 3 5 4 4 4 3 4 4 3 3 4 4 4 5 5 6 8 9 11 12 14 15 15 16 17 17 18 18 19 19 19 20
11 11 12 12 11 11 11 10 9 9 9 7 5 6 4 5 5 4 4 4 3 3 3 4 4 5 6 7 9 10 11 13 14 15 16 17 17 18 18 19 19 19 19 20
10 9 10 12 12 12 13 12 10 8 6 6 6 7 7 7 6 5 5 4 4 4 4 4 5 6 7 8 10 11 12 13 14 15 16 17 17 18 19 19 20 20 20 20
9 9 9 12 14 15 13 12 10 7 5 4 6 7 7 7 7 6 6 5 4 4 4 5 6 7 8 9 10 11 13 13 14 15 16 17 18 19 19 20 20 20 21 20
8 7 8 10 11 12 11 9 8 7 6 6 7 7 7 7 7 6 6 5 5 5 5 6 7 8 9 10 11 12 13 14 15 16 17 18 19 20 20 21 21 21 21 21
8 7 7 8 9 9 9 9 9 9 8 8 8 8 6 7 6 6 6 6 6 6 6 7 8 9 10 11 12 13 14 15 16 17 18 20 21 21 22 22 22 22 22 22
6 5 5 6 7 8 8 9 11 12 10 8 9 10 8 7 7 7 6 6 7 7 7 8 8 10 10 12 13 14 15 17 18 19 20 21 22 22 22 23 23 23 23 23
8 5 2 3 4 6 8 7 8 9 9 9 9 9 10 9 9 8 8 8 8 8 8 9 10 11 12 13 15 16 17 19 20 21 22 23 23 24 24 24 24 24 24 24
9 7 3 2 3 5 6 6 7 7 7 9 10 10 10 10 10 10 9 9 9 10 10 11 12 13 14 15 17 18 19 20 21 23 24 24 25 26 26 26 25 25 25 24
8 8 6 6 6 6 7 6 7 8 8 9 10 11 11 11 11 11 11 11 12 12 12 13 13 15 16 17 19 20 21 22 23 24 25 26 27 27 27 27 27 27 26 25
8 8 8 9 8 8 7 7 8 8 9 9 9 11 9 10 11 12 12 12 13 13 14 15 16 17 18 19 21 22 23 24 25 26 27 28 29 29 29 29 29 28 28 27
8 8 8 8 8 8 8 8 8 9 10 10 11 11 11 11 12 13 13 14 14 15 16 17 18 19 21 22 23 24 26 27 28 29 30 30 31 31 31 31 31 31 30 29
9 8 9 9 9 9 9 9 10 10 11 12 12 12 13 13 14 14 15 16 16 17 18 19 21 22 23 25 26 27 28 29 30 31 31 32 32 32 32 33 33 33 32 32
11 10 10 10 10 11 10 10 11 12 13 14 14 15 15 15 16 16 17 18 18 20 21 22 24 25 27 28 29 29 30 31 32 32 33 33 33 33 34 34 34 34 34 34
13 13 13 12 13 13 12 12 14 14 14 15 16 16 16 17 18 18 18 20 21 22 24 25 26 28 29 30 31 32 33 33 34 34 34 35 35 35 36 36 37 37 36 36
15 15 15 15 16 17 15 13 16 17 17 16 18 18 19 20 21 20 21 23 24 26 27 28 29 30 31 32 33 34 35 35 35 36 36 37 37 38 38 39 39 39 39 39
17 18 18 18 18 20 17 17 19 20 19 19 20 21 22 23 24 24 25 26 27 28 29 30 31 32 33 34 35 36 37 37 38 38 39 39 40 40 41 42 42 42 42 42
20 20 21 21 22 23 20 21 22 23 23 23 23 24 25 26 27 27 28 29 30 31 31 32 33 34 35 36 37 38 39 39 40 40 41 42 42 42 43 44 45 45 45 44
23 23 24 24 25 24 24 25 25 26 26 26 27 27 28 29 29 30 31 32 32 33 34 35 36 36 37 38 39 40 41 41 42 42 43 43 44 45 46 46 46 46 46 45
26 26 27 28 28 28 28 28 28 29 29 29 30 30 31 31 32 33 34 35 36 36 37 38 38 39 40 40 41 42 43 44 44 44 45 45 46 46 47 47 47 46 46 45
29 29 29 30 31 31 31 32 32 32 33 33 33 34 34 35 36 36 37 37 38 39 39 40 40 41 42 43 44 44 45 46 46 47 47 47 47 47 47 47 47 47 46 45
32 32 33 34 34 34 34 35 34 35 35 36 36 37 37 38 38 39 39 40 40 41 41 42 42 43 44 45 46 47 47 48 49 49 49 49 48 48 48 47 47 47 46 45
Wind_Direction
170 172 176 178 178 176 183 192 204 206 206 215 234 253 268 284 287 285 287 288 289 291 300 294 283 294 307 311 317 322 323 327 331 332 333 333 333 332 332 332 334 336 337 337
166 170 173 174 176 176 184 185 190 198 207 219 233 259 266 277 273 273 279 280 274 286 292 285 286 296 303 311 321 327 327 327 329 332 333 334 334 333 333 334 335 335 336 336
162 163 165 166 168 172 174 179 186 187 188 210 236 251 265 273 277 269 267 265 268 277 286 285 292 299 306 313 324 329 332 333 335 333 332 332 332 332 333 334 336 336 337 336
155 157 162 167 174 179 176 180 182 178 176 193 241 252 282 292 274 262 267 273 275 276 283 290 296 298 307 314 321 326 328 329 330 332 333 332 331 331 330 332 334 335 336 336
150 156 163 171 178 176 175 173 173 164 163 179 231 269 273 282 278 277 281 281 290 290 287 295 301 305 308 311 316 320 323 325 328 330 332 332 331 331 331 331 331 333 334 335
146 156 164 167 170 170 164 160 163 158 161 175 210 258 258 264 269 273 274 280 289 293 293 295 301 306 306 308 314 319 321 324 327 329 330 330 331 332 332 333 333 332 332 333
140 152 159 164 163 163 164 154 151 154 174 184 217 248 252 259 270 276 276 282 293 302 302 302 304 307 310 311 315 319 322 324 326 327 329 329 330 331 332 332 332 331 331 331
135 153 163 163 160 157 159 159 157 170 192 215 235 242 258 266 268 267 271 279 288 295 298 298 303 308 310 311 315 318 320 322 324 326 327 327 327 328 328 329 329 330 330 331
137 153 158 159 160 161 168 169 159 172 180 214 240 250 267 263 263 266 272 279 289 295 300 301 302 306 309 313 315 317 318 319 321 323 324 326 326 325 325 325 326 326 327 327
136 152 159 163 168 179 184 179 175 180 183 208 256 277 272 261 266 270 272 279 287 294 301 305 306 308 310 312 314 315 316 317 319 320 322 323 324 323 322 322 322 322 323 323
128 142 169 182 186 186 185 183 184 182 184 201 236 258 268 275 273 277 280 284 288 292 297 301 304 307 308 309 312 313 314 314 315 317 318 319 320 320 320 320 320 320 320 320
152 146 151 198 202 201 193 185 186 191 198 210 238 258 272 279 280 280 282 284 287 292 296 300 302 304 306 307 308 310 312 313 313 314 315 316 318 318 319 318 318 317 317 317
162 157 161 231 231 215 213 204 204 210 214 225 244 260 266 272 277 279 279 282 285 288 293 297 301 303 305 307 308 309 311 312 313 313 313 314 315 316 317 317 317 315 313 313
184 183 199 227 236 235 231 221 224 225 231 242 253 265 265 271 274 279 283 284 285 287 291 295 298 302 304 306 308 310 311 312 312 312 313 313 313 314 315 315 315 313 311 309
205 209 221 234 240 247 245 241 244 244 247 251 258 266 270 273 276 281 285 287 289 290 292 295 297 301 304 306 307 308 309 310 311 311 311 311 311 310 310 310 310 310 309 307
220 226 236 238 244 249 252 251 254 255 259 263 266 273 277 278 281 285 287 288 290 291 292 294 297 300 303 304 305 306 307 308 308 309 309 309 309 308 308 308 307 307 306 304
230 233 243 249 252 258 258 257 259 261 267 270 273 278 280 283 287 287 288 289 290 291 294 295 297 299 301 303 304 305 306 306 307 307 307 307 307 307 307 307 305 304 303 302
243 244 249 255 260 263 264 264 265 266 269 272 276 280 284 286 287 288 290 290 290 292 294 297 298 299 300 302 303 304 304 305 305 305 306 306 305 306 306 305 305 304 302 301
252 252 253 255 260 266 267 266 267 271 272 275 279 281 283 286 287 289 290 290 292 293 295 296 298 299 300 301 302 303 304 305 304 304 305 305 305 305 305 305 305 304 302 300
256 257 258 259 262 267 269 269 271 275 276 277 279 282 284 286 288 290 290 291 294 295 296 297 298 300 301 302 303 304 305 305 304 304 304 305 305 305 305 306 306 304 302 300
256 258 261 262 264 268 272 272 273 276 280 279 280 283 285 286 289 291 292 293 293 294 296 297 298 300 301 302 303 304 305 305 304 304 304 304 304 304 305 305 305 304 302 299
259 260 261 263 265 270 274 273 275 278 280 280 282 284 285 287 289 291 292 293 294 295 296 297 298 300 301 302 303 304 304 304 304 304 304 304 304 304 304 305 305 304 302 299
259 262 264 266 268 271 273 274 276 278 280 281 283 284 286 287 289 291 292 293 293 295 296 297 298 299 301 302 303 304 304 305 304 304 304 304 304 304 304 305 305 304 303 300
261 261 265 267 270 271 272 274 276 278 281 282 283 285 286 287 289 289 291 292 293 295 295 296 297 299 300 301 302 303 304 305 305 305 305 305 304 304 304 305 305 304 304 301
264 265 265 267 269 271 272 274 276 279 280 282 283 284 286 287 288 289 290 291 293 294 295 296 298 299 300 301 302 303 304 305 305 305 305 305 304 304 304 304 304 304 303 301
264 265 265 266 268 270 273 275 276 277 279 280 282 285 286 287 288 288 290 291 293 294 295 297 298 299 300 301 302 303 304 304 305 305 305 305 304 303 303 303 303 303 302 300
Height
5812 5817 5821 5824 5828 5832 5835 5838 5840 5843 5845 5847 5848 5849 5850 5851 5852 5853 5854 5854 5854 5854 5855 5854 5854 5855 5855 5856 5856 5856 5855 5855 5854 5853 5852 5850 5848 5847 5845 5843 5840 5838 5835 5832
5814 5818 5821 5825 5828 5832 5835 5838 5840 5843 5845 5847 5848 5849 5850 5851 5852 5852 5853 5853 5853 5854 5854 5853 5854 5854 5855 5855 5855 5854 5854 5854 5853 5851 5850 5849 5847 5845 5843 5841 5839 5836 5833 5830
5816 5820 5823 5826 5829 5832 5835 5838 5841 5844 5845 5846 5848 5849 5849 5850 5850 5851 5852 5852 5853 5853 5853 5853 5853 5854 5854 5853 5853 5853 5853 5852 5851 5850 5849 5847 5845 5843 5842 5839 5837 5834 5831 5828
5817 5821 5824 5828 5831 5833 5836 5839 5841 5844 5845 5846 5848 5848 5848 5849 5850 5850 5851 5852 5852 5852 5852 5852 5852 5853 5853 5853 5852 5852 5852 5851 5850 5848 5847 5845 5843 5842 5840 5837 5835 5832 5829 5826
5820 5823 5826 5829 5831 5834 5837 5840 5842 5844 5845 5847 5848 5848 5849 5848 5849 5850 5850 5851 5851 5851 5851 5851 5851 5851 5851 5851 5851 5851 5850 5849 5848 5847 5845 5843 5841 5839 5837 5835 5832 5830 5827 5824
5823 5825 5827 5830 5832 5835 5838 5840 5842 5844 5845 5847 5848 5849 5849 5848 5849 5850 5850 5850 5850 5850 5850 5850 5850 5850 5851 5850 5850 5849 5849 5848 5846 5845 5843 5841 5839 5837 5835 5832 5830 5827 5825 5822
5825 5827 5829 5831 5833 5836 5838 5841 5843 5845 5846 5847 5849 5849 5849 5848 5848 5849 5849 5849 5849 5849 5849 5849 5849 5849 5849 5849 5848 5848 5847 5846 5844 5843 5841 5839 5837 5835 5833 5830 5828 5825 5822 5820
5828 5830 5831 5832 5834 5836 5839 5841 5843 5845 5847 5848 5849 5848 5848 5848 5848 5848 5848 5848 5848 5848 5848 5848 5848 5848 5848 5847 5846 5846 5845 5844 5842 5841 5839 5837 5835 5833 5830 5828 5825 5822 5819 5817
5829 5832 5833 5834 5835 5837 5838 5840 5842 5845 5846 5848 5847 5847 5847 5847 5848 5847 5847 5847 5847 5847 5847 5847 5847 5846 5846 5845 5844 5843 5842 5841 5840 5838 5836 5834 5832 5830 5827 5825 5822 5819 5816 5814
5830 5833 5834 5836 5837 5839 5840 5841 5843 5845 5847 5848 5847 5846 5847 5847 5847 5847 5846 5846 5846 5846 5846 5845 5845 5844 5844 5843 5842 5841 5840 5838 5837 5835 5833 5831 5829 5826 5824 5821 5819 5816 5813 5810
5832 5834 5836 5837 5838 5838 5840 5841 5842 5844 5845 5847 5846 5847 5845 5846 5846 5846 5845 5845 5845 5844 5844 5844 5843 5842 5842 5841 5840 5838 5837 5835 5834 5832 5830 5827 5825 5822 5820 5817 5814 5812 5809 5806
5833 5835 5836 5837 5838 5838 5839 5840 5841 5843 5844 5845 5844 5847 5844 5844 5844 5844 5844 5843 5843 5843 5842 5842 5841 5840 5839 5838 5837 5835 5834 5832 5830 5828 5826 5823 5820 5818 5815 5812 5809 5807 5804 5802
5834 5835 5837 5837 5839 5839 5839 5840 5840 5841 5843 5843 5843 5845 5843 5843 5842 5842 5842 5841 5841 5841 5840 5839 5838 5837 5836 5835 5833 5832 5830 5828 5825 5823 5821 5818 5815 5812 5809 5806 5803 5800 5798 5796
5834 5835 5837 5838 5837 5837 5838 5839 5840 5840 5841 5841 5841 5841 5841 5840 5840 5840 5839 5839 5838 5838 5837 5836 5835 5834 5833 5831 5829 5827 5825 5823 5821 5818 5815 5812 5809 5806 5803 5800 5797 5794 5792 5790
5833 5834 5834 5835 5836 5836 5837 5837 5838 5838 5839 5839 5839 5838 5838 5838 5838 5837 5836 5836 5835 5835 5834 5833 5832 5830 5829 5827 5825 5822 5820 5818 5815 5812 5809 5806 5802 5799 5796 5793 5790 5787 5785 5783
5832 5833 5833 5833 5834 5834 5835 5836 5836 5836 5836 5836 5836 5836 5835 5835 5834 5834 5833 5833 5832 5831 5830 5829 5827 5826 5824 5822 5819 5817 5814 5812 5809 5805 5802 5798 5794 5791 5788 5785 5782 5779 5777 5775
5830 5831 5831 5831 5832 5832 5833 5834 5834 5834 5834 5834 5833 5834 5832 5832 5831 5831 5830 5829 5828 5826 5825 5824 5822 5820 5818 5816 5813 5811 5808 5805 5801 5798 5794 5790 5786 5783 5779 5776 5773 5770 5768 5766
5827 5828 5828 5829 5830 5830 5832 5831 5831 5831 5831 5830 5830 5829 5829 5828 5827 5827 5826 5824 5823 5822 5820 5818 5816 5814 5811 5809 5806 5803 5800 5797 5793 5789 5785 5782 5778 5774 5771 5767 5764 5761 5758 5756
5824 5825 5825 5826 5826 5826 5828 5828 5827 5827 5827 5827 5826 5825 5825 5824 5823 5822 5821 5819 5817 5816 5814 5812 5809 5807 5804 5801 5798 5795 5792 5788 5784 5780 5777 5773 5769 5765 5761 5758 5754 5750 5747 5744
5821 5821 5822 5822 5822 5823 5824 5824 5823 5824 5823 5823 5821 5821 5820 5819 5818 5817 5815 5813 5811 5809 5807 5804 5802 5799 5796 5793 5790 5786 5783 5779 5775 5771 5767 5763 5759 5755 5751 5747 5743 5739 5736 5733
5817 5817 5818 5818 5817 5818 5819 5819 5819 5819 5819 5818 5816 5815 5814 5813 5812 5811 5808 5806 5804 5802 5799 5797 5794 5791 5788 5784 5781 5777 5773 5769 5765 5761 5757 5753 5749 5744 5740 5736 5731 5727 5723 5720
5812 5812 5813 5813 5813 5815 5814 5813 5813 5813 5812 5811 5810 5809 5808 5806 5805 5803 5801 5798 5796 5794 5791 5789 5786 5783 5779 5775 5772 5768 5763 5759 5755 5750 5746 5742 5737 5733 5728 5723 5718 5713 5709 5705
5806 5807 5806 5807 5808 5808 5807 5807 5806 5806 5805 5804 5803 5802 5800 5799 5797 5795 5793 5790 5788 5785 5783 5780 5777 5773 5770 5766 5761 5757 5753 5748 5744 5739 5735 5730 5726 5721 5715 5710 5705 5700 5695 5690
5799 5800 5800 5800 5799 5800 5800 5799 5799 5798 5797 5796 5795 5794 5792 5790 5789 5786 5784 5781 5779 5776 5773 5770 5767 5763 5760 5755 5751 5746 5741 5737 5732 5728 5723 5718 5713 5708 5702 5697 5691 5686 5681 5677
5792 5792 5792 5792 5792 5791 5791 5791 5791 5790 5789 5787 5786 5785 5783 5781 5779 5777 5774 5772 5769 5766 5763 5760 5756 5752 5748 5744 5740 5735 5730 5725 5720 5715 5710 5705 5700 5694 5689 5684 5679 5673 5669 5663
5783 5783 5783 5783 5783 5782 5782 5782 5781 5780 5779 5778 5777 5775 5773 5771 5769 5766 5764 5761 5758 5755 5752 5749 5745 5741 5736 5732 5727 5722 5717 5712 5707 5702 5697 5691 5686 5681 5676 5671 5667 5661 5655 5651